TimeEDT,TemperatureF,Dew PointF,Humidity,Sea Level PressureIn,VisibilityMPH,Wind Direction,Wind SpeedMPH,Gust SpeedMPH,PrecipitationIn,Events,Conditions,WindDirDegrees,DateUTC
12:56 AM,70.0,64.9,84,30.12,10.0,Calm,Calm,-,N/A,,Clear,0,2013-05-18 04:56:00
1:56 AM,66.9,63.0,87,30.11,10.0,West,3.5,-,N/A,,Clear,260,2013-05-18 05:56:00
2:56 AM,64.9,62.1,90,30.10,10.0,Calm,Calm,-,N/A,,Clear,0,2013-05-18 06:56:00
3:29 AM,63.0,62.1,97,30.10,1.8,Calm,Calm,-,N/A,,Clear,0,2013-05-18 07:29:00
3:31 AM,64.0,62.1,93,30.10,1.0,Calm,Calm,-,N/A,,Mist,0,2013-05-18 07:31:00
3:42 AM,64.9,62.1,90,30.10,2.5,Calm,Calm,-,N/A,,Clear,0,2013-05-18 07:42:00
3:49 AM,64.9,63.0,93,30.10,10.0,Calm,Calm,-,N/A,,Clear,0,2013-05-18 07:49:00
3:56 AM,64.9,63.0,93,30.10,6.0,Calm,Calm,-,N/A,,Clear,0,2013-05-18 07:56:00
4:19 AM,64.0,63.0,96,30.10,0.8,Calm,Calm,-,N/A,,Clear,0,2013-05-18 08:19:00
4:21 AM,64.0,62.1,93,30.10,0.5,Calm,Calm,-,N/A,Fog,Fog,0,2013-05-18 08:21:00
4:34 AM,64.9,63.0,93,30.10,1.0,Calm,Calm,-,0.00,Rain,Light Rain,0,2013-05-18 08:34:00
4:36 AM,64.0,63.0,96,30.10,1.8,West,3.5,-,0.00,,Partly Cloudy,260,2013-05-18 08:36:00
4:43 AM,64.0,62.1,93,30.10,10.0,West,3.5,-,0.00,,Partly Cloudy,270,2013-05-18 08:43:00
4:56 AM,64.9,62.1,90,30.10,10.0,Calm,Calm,-,0.00,,Clear,0,2013-05-18 08:56:00
5:56 AM,64.9,62.1,90,30.10,10.0,Calm,Calm,-,N/A,,Clear,0,2013-05-18 09:56:00
6:56 AM,66.9,64.0,90,30.14,10.0,Calm,Calm,-,0.00,,Clear,0,2013-05-18 10:56:00
7:56 AM,72.0,68.0,87,30.15,10.0,Calm,Calm,-,N/A,,Clear,0,2013-05-18 11:56:00
8:56 AM,75.0,68.0,79,30.15,10.0,SW,11.5,17.3,N/A,,Clear,220,2013-05-18 12:56:00
9:56 AM,80.1,66.9,64,30.15,10.0,SW,5.8,-,N/A,,Scattered Clouds,220,2013-05-18 13:56:00
10:38 AM,81.0,66.9,62,30.14,10.0,WSW,8.1,-,N/A,,Mostly Cloudy,240,2013-05-18 14:38:00
10:56 AM,81.0,66.9,62,30.14,10.0,SW,10.4,-,N/A,,Mostly Cloudy,230,2013-05-18 14:56:00
11:08 AM,81.0,66.9,62,30.14,10.0,Variable,4.6,-,N/A,,Scattered Clouds,0,2013-05-18 15:08:00
11:20 AM,82.0,66.9,60,30.14,10.0,SSW,6.9,-,N/A,,Mostly Cloudy,210,2013-05-18 15:20:00
11:33 AM,80.1,68.0,67,30.13,10.0,SSE,4.6,-,N/A,,Scattered Clouds,160,2013-05-18 15:33:00
11:56 AM,82.9,68.0,60,30.14,10.0,South,5.8,-,N/A,,Partly Cloudy,170,2013-05-18 15:56:00
12:56 PM,82.9,68.0,60,30.13,10.0,South,5.8,-,N/A,,Clear,170,2013-05-18 16:56:00
1:56 PM,81.0,66.9,62,30.12,10.0,South,8.1,-,N/A,,Clear,170,2013-05-18 17:56:00
2:56 PM,81.0,64.9,58,30.10,10.0,South,9.2,-,N/A,,Clear,170,2013-05-18 18:56:00
3:56 PM,80.1,63.0,56,30.08,10.0,South,10.4,17.3,N/A,,Clear,180,2013-05-18 19:56:00
4:49 PM,77.0,63.0,62,30.09,10.0,South,6.9,-,N/A,Thunderstorm,Thunderstorm,180,2013-05-18 20:49:00
4:56 PM,77.0,64.0,64,30.08,10.0,South,8.1,-,N/A,Thunderstorm,Thunderstorm,190,2013-05-18 20:56:00
5:08 PM,77.0,64.0,64,30.07,10.0,South,6.9,-,N/A,,Clear,190,2013-05-18 21:08:00
5:56 PM,77.0,66.0,69,30.09,10.0,South,6.9,-,N/A,Thunderstorm,Thunderstorm,170,2013-05-18 21:56:00
6:13 PM,75.9,66.9,74,30.10,10.0,SSW,5.8,-,N/A,,Scattered Clouds,200,2013-05-18 22:13:00
6:56 PM,73.0,69.1,87,30.11,3.0,South,4.6,-,0.05,Rain,Rain,190,2013-05-18 22:56:00
7:56 PM,73.0,70.0,90,30.10,10.0,Variable,3.5,-,0.07,Rain,Light Rain,0,2013-05-18 23:56:00
8:32 PM,73.0,70.0,90,30.10,10.0,Calm,Calm,-,0.00,,Overcast,0,2013-05-19 00:32:00
8:56 PM,72.0,70.0,93,30.10,10.0,SSE,3.5,-,0.00,,Overcast,150,2013-05-19 00:56:00
9:56 PM,72.0,69.1,91,30.11,10.0,Calm,Calm,-,N/A,,Mostly Cloudy,0,2013-05-19 01:56:00
10:56 PM,72.0,69.1,91,30.12,10.0,Calm,Calm,-,N/A,,Mostly Cloudy,0,2013-05-19 02:56:00
11:56 PM,71.1,69.1,93,30.11,10.0,Calm,Calm,-,N/A,,Partly Cloudy,0,2013-05-19 03:56:00